| time (UTC) | temp F | wind direction | speed MPH | gust MPH | rain 1hr in | rain 24hr in | rain mn in | humidity % | barometer mb |
| 20260506014815 | 41 | 0 | 0.0 | 0.0 | 5.64 | 0.00 | 0.00 | 92 | 1017.4 |
| 20260506014316 | 41 | 0 | 0.0 | 0.0 | 5.64 | 0.00 | 0.00 | 92 | 1017.3 |
| 20260506013815 | 41 | 0 | 0.0 | 0.0 | 5.64 | 0.00 | 0.00 | 92 | 1017.3 |
| 20260506013315 | 41 | 0 | 0.0 | 0.0 | 5.64 | 0.00 | 0.00 | 91 | 1017.2 |
| 20260506012815 | 41 | 0 | 0.0 | 0.0 | 5.64 | 0.00 | 0.00 | 91 | 1017.1 |
| 20260506012317 | 42 | 0 | 0.0 | 0.0 | 5.64 | 0.00 | 0.00 | 91 | 1016.9 |
| 20260506011815 | 42 | 0 | 0.0 | 0.0 | 5.64 | 0.00 | 0.00 | 90 | 1016.9 |
| 20260506011315 | 42 | 0 | 0.0 | 0.0 | 5.64 | 0.00 | 0.00 | 89 | 1016.9 |
| 20260506010815 | 42 | 0 | 0.0 | 0.0 | 5.64 | 0.00 | 0.00 | 87 | 1016.8 |
| 20260506010315 | 42 | 0 | 0.0 | 0.0 | 5.64 | 0.00 | 0.00 | 88 | 1016.8 |
| 20260506005815 | 42 | 0 | 0.0 | 0.0 | 5.64 | 0.00 | 0.00 | 88 | 1016.8 |
| 20260506005315 | 42 | 0 | 0.0 | 0.0 | 5.64 | 0.00 | 0.00 | 88 | 1016.5 |
| 20260506004815 | 42 | 0 | 0.0 | 0.0 | 5.64 | 0.00 | 0.00 | 89 | 1016.4 |
| 20260506004315 | 42 | 0 | 0.0 | 0.0 | 5.64 | 0.00 | 0.00 | 89 | 1016.4 |
| 20260506003815 | 42 | 0 | 0.0 | 0.0 | 5.64 | 0.00 | 0.00 | 87 | 1016.1 |
| 20260506003315 | 42 | 0 | 0.0 | 0.0 | 5.64 | 0.00 | 0.00 | 88 | 1016.1 |
| 20260506002815 | 42 | 0 | 0.0 | 0.0 | 5.64 | 0.00 | 0.00 | 87 | 1016.1 |
| 20260506002315 | 42 | 0 | 0.0 | 0.0 | 5.64 | 0.00 | 0.00 | 87 | 1016.1 |
| 20260506001815 | 42 | 0 | 0.0 | 0.0 | 5.64 | 0.00 | 0.00 | 87 | 1016.0 |
| 20260506001315 | 42 | 0 | 0.0 | 0.0 | 5.64 | 0.00 | 0.00 | 86 | 1016.0 |
| 20260506000815 | 42 | 0 | 0.0 | 0.0 | 5.64 | 0.00 | 0.00 | 87 | 1016.0 |
| 20260506000316 | 42 | 0 | 0.0 | 0.0 | 5.64 | 0.00 | 0.00 | 87 | 1015.9 |
| 20260505235815 | 42 | 0 | 0.0 | 0.0 | 5.64 | 0.00 | 0.00 | 87 | 1016.0 |
| 20260505235316 | 42 | 0 | 0.0 | 0.0 | 5.64 | 0.00 | 0.00 | 87 | 1016.1 |
| 20260505234815 | 42 | 0 | 0.0 | 0.0 | 5.64 | 0.00 | 0.00 | 87 | 1015.9 |
| 20260505234315 | 42 | 0 | 0.0 | 0.0 | 5.64 | 0.00 | 0.00 | 87 | 1015.9 |
| 20260505233815 | 42 | 0 | 0.0 | 0.0 | 5.64 | 0.00 | 0.00 | 88 | 1016.0 |
| 20260505233315 | 42 | 0 | 0.0 | 0.0 | 5.64 | 0.00 | 0.00 | 87 | 1016.0 |
| 20260505232816 | 42 | 0 | 0.0 | 0.0 | 5.64 | 0.00 | 0.00 | 88 | 1015.9 |
| 20260505232315 | 42 | 0 | 0.0 | 0.0 | 5.64 | 0.00 | 0.00 | 87 | 1016.0 |
| 20260505231815 | 42 | 0 | 0.0 | 0.0 | 5.64 | 0.00 | 0.00 | 87 | 1015.8 |
| 20260505231315 | 42 | 0 | 0.0 | 0.0 | 5.64 | 0.00 | 0.00 | 87 | 1015.8 |
| 20260505230816 | 42 | 0 | 0.0 | 0.0 | 5.64 | 0.00 | 0.00 | 88 | 1015.8 |
| 20260505230315 | 42 | 0 | 0.0 | 0.0 | 5.64 | 0.00 | 0.00 | 88 | 1015.8 |
| 20260505225815 | 42 | 0 | 0.0 | 0.0 | 5.64 | 0.00 | 0.00 | 88 | 1015.7 |
| 20260505225315 | 42 | 0 | 0.0 | 0.0 | 5.64 | 0.00 | 0.00 | 88 | 1015.6 |
| 20260505224815 | 42 | 0 | 0.0 | 0.0 | 5.64 | 0.00 | 0.00 | 88 | 1015.5 |
| 20260505224316 | 42 | 0 | 0.0 | 0.0 | 5.64 | 0.00 | 0.00 | 88 | 1015.6 |
| 20260505223815 | 42 | 0 | 0.0 | 0.0 | 5.64 | 0.00 | 0.00 | 88 | 1015.6 |
| 20260505223315 | 42 | 0 | 0.0 | 0.0 | 5.64 | 0.00 | 0.00 | 89 | 1015.7 |
| 20260505222815 | 42 | 0 | 0.0 | 0.0 | 5.64 | 0.00 | 0.00 | 89 | 1015.8 |
| 20260505222318 | 42 | 0 | 0.0 | 0.0 | 5.64 | 0.00 | 0.00 | 88 | 1015.8 |
| 20260505221815 | 42 | 0 | 0.0 | 0.0 | 5.64 | 0.00 | 0.00 | 87 | 1015.9 |
| 20260505221315 | 42 | 0 | 0.0 | 0.0 | 5.64 | 0.00 | 0.00 | 88 | 1015.8 |
| 20260505220815 | 41 | 0 | 0.0 | 0.0 | 5.64 | 0.00 | 0.00 | 87 | 1015.8 |
| 20260505220315 | 41 | 0 | 0.0 | 0.0 | 5.64 | 0.00 | 0.00 | 87 | 1015.7 |
| 20260505215816 | 41 | 0 | 0.0 | 0.0 | 5.64 | 0.00 | 0.00 | 87 | 1015.7 |
| 20260505215315 | 41 | 0 | 0.0 | 0.0 | 5.64 | 0.00 | 0.00 | 87 | 1015.8 |
| 20260505214815 | 41 | 0 | 0.0 | 0.0 | 5.64 | 0.00 | 0.00 | 88 | 1015.8 |
| 20260505214315 | 41 | 0 | 0.0 | 0.0 | 5.64 | 0.00 | 0.00 | 89 | 1015.6 |
| 20260505213816 | 41 | 0 | 0.0 | 0.0 | 5.64 | 0.00 | 0.00 | 89 | 1015.7 |
| 20260505213317 | 41 | 0 | 0.0 | 0.0 | 5.64 | 0.00 | 0.00 | 90 | 1015.8 |
| 20260505212815 | 41 | 0 | 0.0 | 0.0 | 5.64 | 0.00 | 0.00 | 90 | 1015.7 |
| 20260505212315 | 41 | 0 | 0.0 | 0.0 | 5.64 | 0.00 | 0.00 | 90 | 1015.7 |
| 20260505211815 | 41 | 0 | 0.0 | 0.0 | 5.64 | 0.00 | 0.00 | 88 | 1015.6 |
| 20260505211317 | 41 | 0 | 0.0 | 0.0 | 5.64 | 0.00 | 0.00 | 89 | 1015.7 |
| 20260505210815 | 42 | 0 | 0.0 | 0.0 | 5.64 | 0.00 | 0.00 | 90 | 1015.6 |
| 20260505210317 | 42 | 0 | 0.0 | 0.0 | 5.64 | 0.00 | 0.00 | 90 | 1015.6 |
| 20260505205815 | 41 | 287 | 12.0 | 15.0 | 5.64 | 0.00 | 0.00 | 89 | 1015.8 |
| 20260505205315 | 41 | 277 | 11.0 | 15.0 | 5.64 | 0.00 | 0.00 | 87 | 1015.8 |
| 20260505204815 | 42 | 0 | 0.0 | 0.0 | 5.64 | 0.00 | 0.00 | 89 | 1015.7 |
| 20260505204316 | 42 | 0 | 0.0 | 0.0 | 5.64 | 0.00 | 0.00 | 91 | 1015.5 |
| 20260505203816 | 42 | 0 | 0.0 | 0.0 | 5.64 | 0.00 | 0.00 | 92 | 1015.4 |
| 20260505203316 | 42 | 0 | 0.0 | 0.0 | 5.64 | 0.00 | 0.00 | 92 | 1015.6 |
| 20260505202815 | 42 | 0 | 0.0 | 0.0 | 5.64 | 0.00 | 0.00 | 93 | 1015.4 |
| 20260505202318 | 42 | 0 | 0.0 | 0.0 | 5.64 | 0.00 | 0.00 | 93 | 1015.6 |
| 20260505201815 | 43 | 0 | 0.0 | 0.0 | 5.64 | 0.00 | 0.00 | 92 | 1015.4 |
| 20260505201317 | 43 | 0 | 0.0 | 0.0 | 5.64 | 0.00 | 0.00 | 92 | 1015.6 |
| 20260505200815 | 41 | 0 | 0.0 | 0.0 | 5.64 | 0.00 | 0.00 | 92 | 1015.3 |
| 20260505200315 | 41 | 280 | 13.0 | 15.0 | 5.64 | 0.00 | 0.00 | 92 | 1015.4 |
| 20260505195815 | 41 | 145 | 14.0 | 18.0 | 5.64 | 0.00 | 0.00 | 93 | 1015.4 |
| 20260505195316 | 42 | 281 | 13.0 | 16.0 | 5.64 | 0.00 | 0.00 | 94 | 1015.4 |
| 20260505194815 | 42 | 0 | 0.0 | 0.0 | 5.64 | 0.00 | 0.00 | 94 | 1015.3 |
| 20260505194315 | 42 | 0 | 0.0 | 0.0 | 5.64 | 0.00 | 0.00 | 94 | 1015.3 |
| 20260505193815 | 42 | 332 | 0.0 | 3.0 | 5.64 | 0.00 | 0.00 | 91 | 1015.2 |
| 20260505193315 | 41 | 0 | 0.0 | 0.0 | 5.64 | 0.00 | 0.00 | 93 | 1015.2 |
| 20260505192815 | 41 | 0 | 0.0 | 0.0 | 5.64 | 0.00 | 0.00 | 93 | 1015.1 |
| 20260505192315 | 42 | 0 | 0.0 | 0.0 | 5.64 | 0.00 | 0.00 | 94 | 1014.9 |
| 20260505191815 | 41 | 0 | 0.0 | 0.0 | 5.64 | 0.00 | 0.00 | 94 | 1015.2 |
| 20260505191316 | 40 | 0 | 0.0 | 0.0 | 5.64 | 0.00 | 0.00 | 95 | 1015.2 |
| 20260505190815 | 42 | 0 | 0.0 | 0.0 | 5.64 | 0.00 | 0.00 | 95 | 1015.1 |
| 20260505190316 | 43 | 332 | 1.0 | 6.0 | 5.64 | 0.00 | 0.00 | 94 | 1014.8 |
| 20260505185816 | 43 | 332 | 0.0 | 3.0 | 5.64 | 0.00 | 0.00 | 92 | 1014.8 |
| 20260505185316 | 44 | 0 | 0.0 | 0.0 | 5.64 | 0.00 | 0.00 | 88 | 1014.7 |
| 20260505184816 | 45 | 0 | 0.0 | 0.0 | 5.64 | 0.00 | 0.00 | 74 | 1014.5 |
| 20260505184316 | 46 | 0 | 0.0 | 0.0 | 5.64 | 0.00 | 0.00 | 84 | 1014.7 |
| 20260505183816 | 47 | 359 | 1.0 | 5.0 | 5.64 | 0.00 | 0.00 | 81 | 1014.6 |
| 20260505183316 | 47 | 357 | 11.0 | 22.0 | 5.64 | 0.00 | 0.00 | 80 | 1014.6 |
| 20260505182816 | 47 | 44 | 19.0 | 24.0 | 5.64 | 0.00 | 0.00 | 77 | 1014.0 |
| 20260505182318 | 48 | 314 | 16.0 | 21.0 | 5.64 | 0.00 | 0.00 | 74 | 1014.1 |
| 20260505181816 | 48 | 0 | 0.0 | 0.0 | 5.64 | 0.00 | 0.00 | 68 | 1014.2 |
| 20260505181316 | 48 | 0 | 0.0 | 0.0 | 5.64 | 0.00 | 0.00 | 67 | 1014.2 |
| 20260505180816 | 48 | 0 | 0.0 | 0.0 | 5.64 | 0.00 | 0.00 | 67 | 1014.4 |
| 20260505180316 | 48 | 0 | 0.0 | 0.0 | 5.64 | 0.00 | 0.00 | 65 | 1014.1 |
| 20260505175816 | 48 | 0 | 0.0 | 0.0 | 5.64 | 0.00 | 0.00 | 67 | 1014.0 |
| 20260505175316 | 48 | 330 | 0.0 | 4.0 | 5.64 | 0.00 | 0.00 | 66 | 1013.9 |
| 20260505174816 | 48 | 330 | 0.0 | 2.0 | 5.64 | 0.00 | 0.00 | 65 | 1013.8 |
| 20260505174316 | 48 | 0 | 0.0 | 0.0 | 5.64 | 0.00 | 0.00 | 65 | 1013.6 |
| 20260505173816 | 48 | 0 | 0.0 | 0.0 | 5.64 | 0.00 | 0.00 | 66 | 1013.5 |
| 20260505173316 | 48 | 0 | 0.0 | 0.0 | 5.64 | 0.00 | 0.00 | 66 | 1013.4 |
| 20260505172816 | 48 | 284 | 3.0 | 13.0 | 5.64 | 0.00 | 0.00 | 64 | 1013.6 |
| 20260505171316 | 48 | 0 | 0.0 | 0.0 | 5.64 | 0.00 | 0.00 | 66 | 1013.6 |
| 20260505170816 | 48 | 0 | 0.0 | 0.0 | 5.64 | 0.00 | 0.00 | 67 | 1013.7 |
| 20260505170316 | 48 | 0 | 0.0 | 0.0 | 5.64 | 0.00 | 0.00 | 66 | 1013.4 |
| 20260505165816 | 48 | 0 | 0.0 | 0.0 | 5.64 | 0.00 | 0.00 | 67 | 1013.5 |
| 20260505165316 | 48 | 0 | 0.0 | 0.0 | 5.64 | 0.00 | 0.00 | 66 | 1013.5 |
| 20260505164816 | 48 | 0 | 0.0 | 0.0 | 5.64 | 0.00 | 0.00 | 69 | 1013.4 |
| 20260505164316 | 48 | 0 | 0.0 | 0.0 | 5.64 | 0.00 | 0.00 | 68 | 1013.3 |
| 20260505163816 | 48 | 0 | 0.0 | 0.0 | 5.64 | 0.00 | 0.00 | 67 | 1013.3 |
| 20260505163316 | 48 | 284 | 0.0 | 3.0 | 5.64 | 0.00 | 0.00 | 69 | 1013.1 |
| 20260505162816 | 48 | 294 | 1.0 | 10.0 | 5.64 | 0.00 | 0.00 | 71 | 1013.2 |
| 20260505162316 | 48 | 0 | 0.0 | 0.0 | 5.64 | 0.00 | 0.00 | 69 | 1013.1 |
| 20260505161816 | 48 | 301 | 0.0 | 3.0 | 5.64 | 0.00 | 0.00 | 69 | 1013.1 |
| 20260505161316 | 48 | 0 | 0.0 | 0.0 | 5.64 | 0.00 | 0.00 | 70 | 1013.2 |
| 20260505160816 | 48 | 0 | 0.0 | 0.0 | 5.64 | 0.00 | 0.00 | 70 | 1013.2 |
| 20260505160316 | 48 | 0 | 0.0 | 0.0 | 5.64 | 0.00 | 0.00 | 71 | 1013.3 |
| 20260505153316 | 48 | 0 | 0.0 | 0.0 | 5.64 | 0.00 | 0.00 | 73 | 1013.0 |
| 20260505152816 | 48 | 0 | 0.0 | 0.0 | 5.64 | 0.00 | 0.00 | 73 | 1012.8 |
| 20260505152318 | 48 | 0 | 0.0 | 0.0 | 5.64 | 0.00 | 0.00 | 76 | 1012.9 |
| 20260505151816 | 48 | 0 | 0.0 | 0.0 | 5.64 | 0.00 | 0.00 | 76 | 1012.7 |
| 20260505151316 | 48 | 0 | 0.0 | 0.0 | 5.64 | 0.00 | 0.00 | 77 | 1012.2 |
| 20260505150816 | 47 | 0 | 0.0 | 0.0 | 5.64 | 0.00 | 0.00 | 77 | 1011.9 |
| 20260505150318 | 47 | 0 | 0.0 | 0.0 | 5.64 | 0.00 | 0.00 | 77 | 1012.0 |
| 20260505140317 | 46 | 0 | 0.0 | 0.0 | 5.64 | 0.00 | 0.00 | 89 | 1011.2 |
| 20260505124816 | 48 | 0 | 0.0 | 0.0 | 5.64 | 0.00 | 0.00 | 92 | 1010.5 |
| 20260505124316 | 49 | 0 | 0.0 | 0.0 | 5.64 | 0.00 | 0.00 | 91 | 1010.4 |
| 20260505123818 | 50 | 0 | 0.0 | 0.0 | 5.64 | 0.00 | 0.00 | 91 | 1010.2 |
| 20260505123316 | 50 | 291 | 6.0 | 14.0 | 5.64 | 0.00 | 0.00 | 91 | 1009.9 |
| 20260505122816 | 51 | 207 | 16.0 | 22.0 | 5.64 | 0.00 | 0.00 | 92 | 1009.8 |
| 20260505122320 | 51 | 353 | 13.0 | 24.0 | 5.64 | 0.00 | 0.00 | 92 | 1009.6 |
| 20260505121816 | 51 | 359 | 1.0 | 6.0 | 5.64 | 0.00 | 0.00 | 92 | 1009.7 |
| 20260505121316 | 51 | 359 | 1.0 | 6.0 | 5.64 | 0.00 | 0.00 | 92 | 1009.5 |
| 20260505120816 | 51 | 359 | 2.0 | 15.0 | 5.64 | 0.00 | 0.00 | 91 | 1009.4 |
| 20260505120316 | 51 | 8 | 2.0 | 18.0 | 5.64 | 0.00 | 0.00 | 91 | 1009.3 |
| 20260505115816 | 51 | 31 | 2.0 | 7.0 | 5.64 | 0.00 | 0.00 | 90 | 1009.1 |
| 20260505115317 | 51 | 359 | 1.0 | 6.0 | 5.64 | 0.00 | 0.00 | 90 | 1009.0 |
| 20260505114817 | 51 | 173 | 3.0 | 14.0 | 5.64 | 0.00 | 0.00 | 89 | 1008.7 |
| 20260505114317 | 52 | 359 | 3.0 | 13.0 | 5.64 | 0.00 | 0.00 | 89 | 1008.7 |
| 20260505113817 | 52 | 0 | 0.0 | 0.0 | 5.64 | 0.00 | 0.00 | 88 | 1008.6 |
| 20260505113317 | 52 | 0 | 0.0 | 0.0 | 5.64 | 0.00 | 0.00 | 87 | 1008.7 |
| 20260505112817 | 52 | 359 | 1.0 | 5.0 | 5.64 | 0.00 | 0.00 | 86 | 1008.7 |
| 20260505112317 | 52 | 0 | 0.0 | 0.0 | 5.64 | 0.00 | 0.00 | 86 | 1008.8 |
| 20260505111817 | 52 | 0 | 0.0 | 0.0 | 5.64 | 0.00 | 0.00 | 85 | 1008.8 |
| 20260505111317 | 52 | 359 | 1.0 | 7.0 | 5.64 | 0.00 | 0.00 | 85 | 1008.7 |
| 20260505110817 | 52 | 359 | 1.0 | 5.0 | 5.64 | 0.00 | 0.00 | 85 | 1008.7 |
| 20260505110317 | 52 | 359 | 1.0 | 3.0 | 5.64 | 0.00 | 0.00 | 84 | 1008.8 |
| 20260505101817 | 52 | 259 | 4.0 | 12.0 | 5.64 | 0.00 | 0.00 | 84 | 1007.7 |
| 20260505101319 | 52 | 0 | 0.0 | 0.0 | 5.64 | 0.00 | 0.00 | 85 | 1007.7 |
| 20260505100817 | 52 | 0 | 0.0 | 0.0 | 5.64 | 0.00 | 0.00 | 84 | 1007.4 |
| 20260505100317 | 52 | 0 | 0.0 | 0.0 | 5.64 | 0.00 | 0.00 | 85 | 1007.4 |
| 20260505095817 | 52 | 0 | 0.0 | 0.0 | 5.64 | 0.00 | 0.00 | 86 | 1007.5 |
| 20260505095318 | 51 | 0 | 0.0 | 0.0 | 5.64 | 0.00 | 0.00 | 85 | 1007.5 |
| 20260505094817 | 51 | 0 | 0.0 | 0.0 | 5.64 | 0.00 | 0.00 | 86 | 1007.3 |
| 20260505094317 | 51 | 0 | 0.0 | 0.0 | 5.64 | 0.00 | 0.00 | 86 | 1007.3 |
| 20260505093817 | 51 | 0 | 0.0 | 0.0 | 5.64 | 0.00 | 0.00 | 86 | 1007.3 |
| 20260505093318 | 51 | 0 | 0.0 | 0.0 | 5.64 | 0.00 | 0.00 | 86 | 1007.4 |
| 20260505092817 | 51 | 0 | 0.0 | 0.0 | 5.64 | 0.00 | 0.00 | 87 | 1007.1 |
| 20260505092318 | 51 | 0 | 0.0 | 0.0 | 5.64 | 0.00 | 0.00 | 88 | 1007.0 |
| 20260505091817 | 51 | 0 | 0.0 | 0.0 | 5.64 | 0.00 | 0.00 | 88 | 1007.0 |
| 20260505091317 | 51 | 0 | 0.0 | 0.0 | 5.64 | 0.00 | 0.00 | 87 | 1007.0 |
| 20260505090817 | 51 | 0 | 0.0 | 0.0 | 5.64 | 0.00 | 0.00 | 88 | 1007.2 |
| 20260505090317 | 51 | 0 | 0.0 | 0.0 | 5.64 | 0.00 | 0.00 | 87 | 1007.0 |
| 20260505085817 | 51 | 0 | 0.0 | 0.0 | 5.64 | 0.00 | 0.00 | 87 | 1007.2 |
| 20260505085317 | 51 | 0 | 0.0 | 0.0 | 5.64 | 0.00 | 0.00 | 86 | 1007.1 |
| 20260505084817 | 51 | 0 | 0.0 | 0.0 | 5.64 | 0.00 | 0.00 | 85 | 1007.0 |
| 20260505084317 | 51 | 0 | 0.0 | 0.0 | 5.64 | 0.00 | 0.00 | 85 | 1007.1 |
| 20260505083817 | 52 | 0 | 0.0 | 0.0 | 5.64 | 0.00 | 0.00 | 84 | 1006.9 |
| 20260505083318 | 52 | 0 | 0.0 | 0.0 | 5.64 | 0.00 | 0.00 | 84 | 1006.9 |
| 20260505082817 | 52 | 0 | 0.0 | 0.0 | 5.64 | 0.00 | 0.00 | 83 | 1006.9 |
| 20260505082317 | 52 | 0 | 0.0 | 0.0 | 5.64 | 0.00 | 0.00 | 83 | 1006.9 |
| 20260505081817 | 52 | 0 | 0.0 | 0.0 | 5.64 | 0.00 | 0.00 | 83 | 1006.9 |
| 20260505081317 | 53 | 0 | 0.0 | 0.0 | 5.64 | 0.00 | 0.00 | 82 | 1006.8 |
| 20260505080817 | 53 | 0 | 0.0 | 0.0 | 5.64 | 0.00 | 0.00 | 80 | 1006.9 |
| 20260505080317 | 53 | 0 | 0.0 | 0.0 | 5.64 | 0.00 | 0.00 | 80 | 1006.8 |
| 20260505075817 | 53 | 0 | 0.0 | 0.0 | 5.64 | 0.00 | 0.00 | 83 | 1006.6 |
| 20260505075317 | 52 | 0 | 0.0 | 0.0 | 5.64 | 0.00 | 0.00 | 80 | 1007.0 |
| 20260505074817 | 52 | 0 | 0.0 | 0.0 | 5.64 | 0.00 | 0.00 | 82 | 1007.0 |
| 20260505074317 | 52 | 0 | 0.0 | 0.0 | 5.64 | 0.00 | 0.00 | 82 | 1007.1 |
| 20260505073817 | 52 | 0 | 0.0 | 0.0 | 5.64 | 0.00 | 0.00 | 81 | 1007.1 |
| 20260505073317 | 52 | 0 | 0.0 | 0.0 | 5.64 | 0.00 | 0.00 | 80 | 1007.1 |
| 20260505072817 | 52 | 0 | 0.0 | 0.0 | 5.64 | 0.00 | 0.00 | 80 | 1007.1 |
| 20260505072317 | 53 | 0 | 0.0 | 0.0 | 5.64 | 0.00 | 0.00 | 80 | 1007.3 |
| 20260505071817 | 53 | 0 | 0.0 | 0.0 | 5.64 | 0.00 | 0.00 | 79 | 1007.1 |
| 20260505071317 | 53 | 0 | 0.0 | 0.0 | 5.64 | 0.00 | 0.00 | 78 | 1007.0 |
| 20260505070817 | 53 | 0 | 0.0 | 0.0 | 5.64 | 0.00 | 0.00 | 79 | 1007.1 |
| 20260505070318 | 52 | 0 | 0.0 | 0.0 | 5.64 | 0.00 | 0.00 | 78 | 1007.3 |
| 20260505065817 | 52 | 0 | 0.0 | 0.0 | 5.64 | 0.00 | 0.00 | 78 | 1007.3 |
| 20260505065320 | 52 | 0 | 0.0 | 0.0 | 5.64 | 0.00 | 0.00 | 79 | 1007.3 |
| 20260505064817 | 52 | 0 | 0.0 | 0.0 | 5.64 | 0.00 | 0.00 | 80 | 1007.3 |
| 20260505064317 | 53 | 0 | 0.0 | 0.0 | 5.64 | 0.00 | 0.00 | 79 | 1007.3 |
| 20260505063817 | 52 | 0 | 0.0 | 0.0 | 5.64 | 0.00 | 0.00 | 80 | 1007.4 |
| 20260505063317 | 52 | 0 | 0.0 | 0.0 | 5.64 | 0.00 | 0.00 | 80 | 1007.6 |
| 20260505062817 | 52 | 0 | 0.0 | 0.0 | 5.64 | 0.00 | 0.00 | 80 | 1007.7 |
| 20260505062318 | 52 | 0 | 0.0 | 0.0 | 5.64 | 0.00 | 0.00 | 78 | 1007.6 |
| 20260505061818 | 53 | 0 | 0.0 | 0.0 | 5.64 | 0.00 | 0.00 | 79 | 1007.7 |
| 20260505061317 | 53 | 0 | 0.0 | 0.0 | 5.64 | 0.00 | 0.00 | 79 | 1007.6 |
| 20260505060817 | 53 | 0 | 0.0 | 0.0 | 5.64 | 0.00 | 0.00 | 79 | 1007.7 |
| 20260505060318 | 53 | 0 | 0.0 | 0.0 | 5.64 | 0.00 | 0.00 | 78 | 1007.8 |
| 20260505055817 | 53 | 0 | 0.0 | 0.0 | 5.64 | 0.00 | 0.00 | 78 | 1007.8 |
| 20260505055317 | 52 | 0 | 0.0 | 0.0 | 5.64 | 0.00 | 0.00 | 78 | 1008.0 |
| 20260505054818 | 53 | 0 | 0.0 | 0.0 | 5.64 | 0.00 | 0.00 | 78 | 1007.9 |
| 20260505054317 | 53 | 0 | 0.0 | 0.0 | 5.64 | 0.00 | 0.00 | 78 | 1007.9 |
| 20260505053817 | 53 | 0 | 0.0 | 0.0 | 5.64 | 0.00 | 0.00 | 78 | 1008.1 |
| 20260505053317 | 53 | 0 | 0.0 | 0.0 | 5.64 | 0.00 | 0.00 | 78 | 1008.1 |
| 20260505052817 | 53 | 0 | 0.0 | 0.0 | 5.64 | 0.00 | 0.00 | 79 | 1008.1 |
| 20260505052319 | 53 | 0 | 0.0 | 0.0 | 5.64 | 0.00 | 0.00 | 80 | 1008.1 |
| 20260505051817 | 53 | 0 | 0.0 | 0.0 | 5.64 | 0.00 | 0.00 | 79 | 1008.1 |
| 20260505051318 | 53 | 58 | 17.0 | 23.0 | 5.64 | 0.00 | 0.00 | 81 | 1008.2 |
| 20260505050817 | 53 | 248 | 17.0 | 24.0 | 5.64 | 0.00 | 0.00 | 80 | 1008.1 |
| 20260505050319 | 53 | 224 | 19.0 | 24.0 | 5.64 | 0.00 | 0.00 | 81 | 1008.1 |
| 20260505041318 | 53 | 359 | 9.0 | 27.0 | 5.64 | 0.00 | 0.00 | 80 | 1008.0 |
| 20260505040818 | 53 | 359 | 6.0 | 23.0 | 5.64 | 0.00 | 0.00 | 78 | 1008.0 |
| 20260505040318 | 53 | 359 | 6.0 | 23.0 | 5.64 | 0.00 | 0.00 | 78 | 1008.1 |
| 20260505035818 | 53 | 359 | 2.0 | 20.0 | 5.64 | 0.00 | 0.00 | 76 | 1008.0 |
| 20260505035318 | 54 | 23 | 1.0 | 18.0 | 5.64 | 0.00 | 0.00 | 76 | 1008.1 |
| 20260505034818 | 53 | 359 | 4.0 | 18.0 | 5.64 | 0.00 | 0.00 | 74 | 1008.1 |
| 20260505034319 | 53 | 359 | 1.0 | 5.0 | 5.64 | 0.00 | 0.00 | 73 | 1008.1 |
| 20260505033818 | 54 | 359 | 1.0 | 3.0 | 5.64 | 0.00 | 0.00 | 73 | 1008.2 |
| 20260505033318 | 54 | 359 | 4.0 | 26.0 | 5.64 | 0.00 | 0.00 | 71 | 1008.3 |
| 20260505032818 | 54 | 359 | 7.0 | 21.0 | 5.64 | 0.00 | 0.00 | 71 | 1008.3 |
| 20260505032319 | 53 | 359 | 5.0 | 18.0 | 5.64 | 0.00 | 0.00 | 74 | 1008.2 |
| 20260505031818 | 52 | 17 | 12.0 | 32.0 | 5.64 | 0.00 | 0.00 | 78 | 1008.2 |
| 20260505031321 | 52 | 1 | 8.0 | 30.0 | 5.64 | 0.00 | 0.00 | 79 | 1008.1 |
| 20260505030818 | 53 | 41 | 5.0 | 22.0 | 5.64 | 0.00 | 0.00 | 77 | 1008.3 |
| 20260505030317 | 52 | 0 | 0.0 | 0.0 | 5.64 | 0.00 | 0.00 | 75 | 1008.4 |
| 20260505025818 | 53 | 0 | 0.0 | 0.0 | 5.64 | 0.00 | 0.00 | 74 | 1008.6 |
| 20260505025320 | 54 | 0 | 0.0 | 0.0 | 5.64 | 0.00 | 0.00 | 73 | 1008.6 |
| 20260505024818 | 54 | 0 | 0.0 | 0.0 | 5.64 | 0.00 | 0.00 | 72 | 1008.7 |
| 20260505024318 | 54 | 0 | 0.0 | 0.0 | 5.64 | 0.00 | 0.00 | 73 | 1008.7 |
| 20260505023818 | 54 | 0 | 0.0 | 0.0 | 5.64 | 0.00 | 0.00 | 73 | 1008.7 |
| 20260505023318 | 54 | 0 | 0.0 | 0.0 | 5.64 | 0.00 | 0.00 | 70 | 1008.8 |
| 20260505022818 | 54 | 0 | 0.0 | 0.0 | 5.64 | 0.00 | 0.00 | 70 | 1009.0 |
| 20260505022319 | 54 | 359 | 1.0 | 7.0 | 5.64 | 0.00 | 0.00 | 69 | 1009.0 |
| 20260505021818 | 54 | 0 | 0.0 | 0.0 | 5.64 | 0.00 | 0.00 | 69 | 1008.7 |
| 20260505021319 | 54 | 0 | 0.0 | 0.0 | 5.64 | 0.00 | 0.00 | 69 | 1008.7 |
| 20260505020818 | 54 | 0 | 0.0 | 0.0 | 5.64 | 0.00 | 0.00 | 68 | 1008.7 |
| 20260505020319 | 55 | 0 | 0.0 | 0.0 | 5.64 | 0.00 | 0.00 | 68 | 1008.6 |
| 20260505015818 | 55 | 0 | 0.0 | 0.0 | 5.64 | 0.00 | 0.00 | 67 | 1008.7 |
| 20260505015318 | 55 | 0 | 0.0 | 0.0 | 5.64 | 0.00 | 0.00 | 66 | 1008.7 |